[Date Prev][Date Next][Thread Prev][Thread Next] - [Date Index][Thread Index][Author Index]
2 Line ISS Keps 3-29
- Subject: [sarex] 2 Line ISS Keps 3-29
- From: "Dave Larsen Ph.D." <doc@xxxxxxxxxxx>
- Date: Sat, 29 Mar 2003 05:24:42 -0800
ISS
1 25544U 98067A 03088.50254630 .00022383 00000-0 28430-3 0 8283
2 25544 51.6340 60.4494 0008500 26.6646 109.3182 15.59282542248574
----
Via the sarex mailing list at AMSAT.ORG courtesy of AMSAT-NA.
To unsubscribe, send "unsubscribe sarex" to Majordomo@amsat.org
AMSAT Home